Tracking 30143 objects as of 20-Jan-2025
HD Live streaming from Space Station
objects crossing your sky now

COSMOS 1577

Track COSMOS 1577 now!
10-day predictions
COSMOS 1577 is classified as:


NORAD ID: 15077
Int'l Code: 1984-067A
Perigee: 960.5 km
Apogee: 1,012.8 km
Inclination: 83.0 °
Period: 104.7 minutes
Semi major axis: 7357 km
RCS: 2.4814 m2 (large)
Launch date: June 27, 1984
Source: Commonwealth of Independent States (former USSR) (CIS)
Launch site: PLESETSK MISSILE AND SPACE COMPLEX (PKMTR)
Your satellite tracking list
Your tracking list is empty




NASA's NSSDC Master Catalog

Two Line Element Set (TLE):
1 15077U 84067A   25020.08877990  .00000089  00000-0  76745-4 0  9992
2 15077  82.9544 226.0492 0035561 351.9661 128.3515 13.75612336783178
Source of the keplerian elements: AFSPC